Volver al catálogo

SL-8 R/B

ActivoLEO
NORAD 3819·ROCKET BODY·🇷🇺 Russia

Lanzado Mar 17, 1969 desde Plesetsk Cosmodrome

Loading…

Próximos Pases (próximas 24 horas)

TLE

ActualizadoSource: Space-Track

Época: Sep 14, 2026, 21:04 UTC

1 03819U 69024B   26257.87835882 -.00000092  00000-0 -18234-3 0  9997
2 03819  73.9885  37.3503 0010144 206.4501 319.9661 13.19592271768716

Sigue SL-8 R/B en tiempo real con AllMySat

Download on the App Store